Location: Asheville, NC
(35.6000°N, 82.5500°W)
Time: 02:27:20

UWE-3 - Pass Details

Date: 18 March 2018
Orbit: 585 x 685 km, 97.6° (Epoch: 16 March)

Event Time Altitude Azimuth Distance (km) Brightness Sun altitude
Rises 20:00:26 0° 159° (SSE) 2,927 ? -4.9°
Reaches altitude 10° 20:02:40 10° 155° (SSE) 2,006 ? -5.4°
Maximum altitude 20:06:58 61° 76° (ENE) 703 ? -6.2°
Drops below altitude 10° 20:11:10 10° 356° (N) 1,961 ? -7.1°
Sets 20:13:20 0° 353° (N) 2,855 ? -7.5°
